This demonstration page uses our WeatherBlox Daily Observations layout. Learn more.

Left ArrowRight Arrow

39.95238, -75.16362

Hourly Observations for October 31, 2019

Temp ( °F °C ) Dew Point ( °F °C ) Humidity (%) Winds ( mph kmh ) Pressure ( in mb ) Visibility ( mi km ) Precip ( " mm )
12:07 am 00:07 Cloudy with Light Rain 62 16.7 60 15.6 93 93 SSE 5 7 30.11 1020 5 8 0.02 0.51
12:49 am 00:49 Cloudy with Light Rain 63 17 59 15 88 88 SSE 5 7 30.09 1019 4 6 0.06 1.52
12:54 am 00:54 Cloudy with Light Rain 62 16.7 59 15 90 90 SSE 5 7 30.09 1019 4 6 0.06 1.52
1:11 am 01:11 Cloudy with Light Rain 62 16.7 59 15 90 90 SSE 7 11 30.08 1019 4 6 0.01 0.25
1:28 am 01:28 Cloudy with Light Rain 61 16.1 59 15 93 93 SE 5 7 30.07 1018 5 8 0.01 0.25
1:54 am 01:54 Cloudy with Light Rain 61 16.1 59 15 93 93 ESE 3 6 30.05 1018 5 8 0.01 0.25
2:32 am 02:32 Cloudy 61 16.1 59 15 93 93 ESE 5 7 30.03 1017 7 11 0.00 0.00
2:54 am 02:54 Cloudy 61 16.1 59 15 93 93 ESE 5 7 30.02 1017 7 11 0.00 0.00
3:54 am 03:54 Cloudy with Light Rain 62 16.7 59 15 90 90 S 7 11 30.00 1016 8 13 0.00 0.00
4:11 am 04:11 Cloudy with Rain 62 16.7 59 15 90 90 SSE 5 7 30.00 1016 5 8 0.03 0.76
4:18 am 04:18 Cloudy with Light Rain 62 16.7 60 15.6 93 93 S 7 11 29.99 1016 5 8 0.03 0.76
4:54 am 04:54 Cloudy with Rain 64 17.8 62 16.7 93 93 S 10 17 29.98 1015 5 8 0.07 1.78
5:15 am 05:15 Cloudy 64 17.8 62 16.7 93 93 S 7 11 29.97 1015 7 11 0.02 0.51
5:54 am 05:54 Cloudy 66 18.9 63 17.2 90 90 S 8 13 29.96 1014 9 14 0.02 0.51
6:03 am 06:03 Cloudy 66 18.9 63 17.2 90 90 S 10 17 29.96 1015 10 16 0.00 0.00
6:33 am 06:33 Cloudy with Rain 67 19.4 64 17.8 91 91 S 13 20 29.96 1015 5 8 0.02 0.51
6:54 am 06:54 Cloudy with Rain 67 19.4 64 17.8 91 91 S 10 17 29.95 1014 4 6 0.08 2.03
7:09 am 07:09 Cloudy with Light Rain 67 19.4 64 17.8 91 91 S 10 17 29.94 1014 7 11 0.03 0.76
7:22 am 07:22 Cloudy with Heavy Rain 67 19.4 65 18.3 93 93 S 12 19 29.94 1014 3 5 0.07 1.78
7:34 am 07:34 Cloudy with Light Rain 67 19.4 65 18.3 93 93 S 8 13 29.94 1014 7 11 0.11 2.79
7:43 am 07:43 Cloudy 67 19.4 65 18.3 93 93 S 12 19 29.93 1014 10 16 0.11 2.79
7:54 am 07:54 Cloudy with Light Rain 68 20 65 18.3 90 90 S 12 19 29.93 1014 10 16 0.11 2.79
8:09 am 08:09 Cloudy 68 20 65 18.3 90 90 S 12 19 29.93 1014 10 16 0.00 0.00
8:27 am 08:27 Cloudy with Light Rain 68 20 65 18.3 90 90 S 13 20 29.93 1014 10 16 0.00 0.00
8:54 am 08:54 Cloudy with Light Rain 69 20.6 66 18.9 90 90 S 13 20 29.93 1014 10 16 0.01 0.25
9:50 am 09:50 Cloudy with Light Rain 70 21 66 19 88 88 S 15 24 29.92 1013 7 11 0.02 0.51
9:54 am 09:54 Cloudy with Light Rain 69 20.6 66 18.9 90 90 S 15 24 29.92 1013 2 3 0.02 0.51
10:02 am 10:02 Cloudy with Heavy Rain 69 20.6 66 18.9 90 90 S 15 24 29.90 1012 5 8 0.11 2.79
10:09 am 10:09 Cloudy with Light Rain 69 20.6 67 19.4 93 93 S 15 24 29.90 1012 7 11 0.12 3.05
10:20 am 10:20 Cloudy 70 21.1 67 19.4 90 90 S 15 24 29.90 1012 10 16 0.13 3.30
10:54 am 10:54 Cloudy 71 21.7 67 19.4 87 87 S 15 24 29.88 1012 10 16 0.13 3.30
11:33 am 11:33 Cloudy with Light Rain 72 22.2 67 19.4 84 84 S 17 28 29.88 1012 8 13 0.00 0.00
11:54 am 11:54 Cloudy with Light Rain 72 22.2 67 19.4 84 84 S 16 26 29.86 1011 9 14 0.00 0.00
12:03 pm 12:03 Cloudy 72 22.2 67 19.4 84 84 S 17 28 29.86 1011 10 16 0.00 0.00
12:54 pm 12:54 Cloudy 73 22.8 67 19.4 81 81 S 17 28 29.83 1010 10 16 0.00 0.00
1:54 pm 13:54 Cloudy 74 23.3 67 19.4 79 79 S 17 28 29.78 1009 10 16 0.00 0.00
2:09 pm 14:09 Cloudy 74 23.3 66 18.9 76 76 S 21 33 29.77 1008 10 16 0.00 0.00
2:54 pm 14:54 Cloudy 75 23.9 66 18.9 74 74 S 16 26 29.75 1007 10 16 0.00 0.00
3:54 pm 15:54 Cloudy 74 23.3 66 18.9 76 76 SSE 17 28 29.72 1006 10 16 0.00 0.00
4:54 pm 16:54 Cloudy 73 22.8 66 18.9 79 79 S 14 22 29.70 1006 10 16 0.00 0.00
5:54 pm 17:54 Cloudy 72 22.2 66 18.9 82 82 SSE 16 26 29.68 1005 10 16 0.00 0.00
6:54 pm 18:54 Cloudy 72 22.2 66 18.9 82 82 S 18 30 29.66 1004 10 16 0.00 0.00
7:54 pm 19:54 Mostly Cloudy 71 21.7 66 18.9 84 84 SSE 18 30 29.61 1003 10 16 0.00 0.00
8:54 pm 20:54 Mostly Cloudy 72 22.2 66 18.9 82 82 S 22 35 29.57 1002 10 16 0.00 0.00
9:54 pm 21:54 Cloudy 73 22.8 65 18.3 76 76 S 20 31 29.56 1001 10 16 0.00 0.00
10:30 pm 22:30 Cloudy 73 22.8 65 18.3 76 76 S 21 33 29.56 1001 10 16 0.00 0.00
10:49 pm 22:49 Cloudy with Light Rain 73 23 64 18 74 74 S 25 41 29.55 1001 8 13 0.00 0.00
10:54 pm 22:54 Cloudy with Light Rain 73 22.8 65 18.3 76 76 S 23 37 29.54 1000 8 13 0.00 0.00
11:05 pm 23:05 Cloudy with Light Rain 73 22.8 66 18.9 79 79 S 24 39 29.53 1000 7 11 0.00 0.00
11:54 pm 23:54 Cloudy with Heavy Rain 64 17.8 60 15.6 87 87 WNW 28 44 29.59 1002 8 13 0.05 1.27

Powered by AerisWeather